STARLINK-32859, 62861

Orbit data source: Space-Track

STARLINK-32859, 62861 is a payload satellite owned by SpaceX/Seattle (US) in LEO that was launched on Sat, 01 Feb 2025 UTC via an FALCON 9 launch vehicle from the Air Force Western Test Range (AFWTR). Payload-class satellites include a variety of spacecraft equipped with specific instruments for various scientific and technological missions. These include communications satellites like Starlink; space stations such as the ISS; scientific satellites like the Hubble; Earth observation satellites from companies like Planet Labs, Umbra, and HawkEye 360; GPS; miniature CubeSats for education and research; and military/defense satellites.

Loading next visibility...
Identifier
62861, 2025-022H
Orbit
LEO
Country
Flag of USUS
Related business
Manufacturer
SpaceX/Seattle
Mission
Operational Commercial Communications
Bus & Motor
STARLINK V2M, Unknown motor
Mass
730 kg wet, ~700 kg dry
Launch date (UTC)
2025-02-01 (9 months ago)
Launch vehicle
FALCON 9
Launch site
Air Force Western Test Range (AFWTR)
Object type
Payload
Rocket body
Debris
Shape & HBR
Box + 2 Pan, 17.7 m
Radar Cross Section
33.884 m², Large (>1 m²)

Expand to show TLE details & history
Last TLE update: 13 hours ago

TLE from 13 hours ago
0 STARLINK-32859
1 62861U 25022H   25294.62160818  .00029433  00000-0  10018-2 0  9991
2 62861  53.1581  55.8892 0001133  76.0472 284.0655 15.30206124 40603
Epoch: 2025-10-21T14:55Z
TLE epoch observation values (Epoch: 2025-10-21T14:55:06.946Z)
Latitude
-0.00001°
Longitude
161.80332°
Altitude
475.908 km
Speed
7.629 km/s
True Right ascension
03h 43m 33s
True Declination
0° 00' 00"
Sunlit
Object was in full shadow at epoch
Visualization orbit readout
Latitude
Unknown
Longitude
Unknown
Altitude
Unknown
Speed
Unknown
Apparent Right ascension
Unknown
Apparent Declination
Unknown
Sunlit
N/A
Visualization observer readout
Local Sidereal Time
23:04:57
Azimuth
Unknown
Elevation
Unknown
Doppler factor
Unknown
Orbital elements
Apogee altitude
476.23 km
Perigee altitude
474.677 km
Semi-major axis
6,853.591 km
Eccentricity
0.00011
Inclination
53.1581°
RAAN
55.8892°
Arg. of periapsis
76.0472°
True anomaly
284.05291°
Mean anomaly
284.0655°
Eccentric anomaly
284.0592°
Mean motion
3.8253 °/min
Orbital period
94.11 mins
BSTAR
0.0010018
Loading maneuver chart data...
Computing Atmospheric mass density...
Loading historical data...
Loading historical data...
Loading historical data...
Loading historical data...
Loading historical data...
Loading historical data...
Loading historical data...

Documentation

Showing up to 5 results
|